"read_dt","SO2 (ppb)","flags","PMT voltage (V)","lamp voltage (V)","lamp intensity (Hz)","internal temp (C)","react chamber temp (C)","sample flow (l/min)","pres (mmHg)","SO2 bkg (ppb)","SO2 coefficient"
2014-07-15 00:00:00,1703E-3,5C000000,-0724,0832,12051,028.6,045.5,0.481,734.8,01.18,0.508
2014-07-15 00:01:00,1704E-3,5C000000,-0724,0834,12273,028.6,045.5,0.482,734.8,01.18,0.508
2014-07-15 00:02:00,1682E-3,5C000000,-0724,0833,12127,028.6,045.5,0.481,734.8,01.18,0.508
2014-07-15 00:03:00,1893E-3,5C000000,-0724,0833,12140,028.6,045.5,0.482,734.8,01.18,0.508
2014-07-15 00:04:00,1767E-3,5C000000,-0724,0833,12089,028.6,045.5,0.481,734.9,01.18,0.508
2014-07-15 00:05:00,1869E-3,5C000000,-0724,0832,12204,028.6,045.5,0.481,734.8,01.18,0.508
2014-07-15 00:06:00,1825E-3,5C000000,-0724,0832,12226,028.6,045.5,0.481,734.8,01.18,0.508
2014-07-15 00:07:00,1885E-3,5C000000,-0724,0833,11849,028.6,045.5,0.481,734.8,01.18,0.508
2014-07-15 00:08:00,1865E-3,5C000000,-0724,0833,12246,028.6,045.5,0.481,734.8,01.18,0.508
2014-07-15 00:09:00,1789E-3,5C000000,-0724,0835,12225,028.6,045.5,0.481,734.8,01.18,0.508
2014-07-15 00:10:00,1917E-3,5C000000,-0724,0832,12152,028.5,045.5,0.482,734.9,01.18,0.508
2014-07-15 00:11:00,1858E-3,5C000000,-0724,0834,12251,028.5,045.5,0.481,734.9,01.18,0.508
2014-07-15 00:12:00,1802E-3,5C000000,-0724,0834,12327,028.5,045.5,0.482,734.9,01.18,0.508
2014-07-15 00:13:00,1836E-3,5C000000,-0724,0833,12131,028.5,045.5,0.481,734.9,01.18,0.508
2014-07-15 00:14:00,1855E-3,5C000000,-0724,0833,12186,028.5,045.5,0.482,735.0,01.18,0.508
2014-07-15 00:15:00,1922E-3,5C000000,-0724,0833,11982,028.5,045.5,0.481,735.0,01.18,0.508
2014-07-15 00:16:00,1797E-3,5C000000,-0724,0832,12211,028.5,045.5,0.482,735.0,01.18,0.508
2014-07-15 00:17:00,1854E-3,5C000000,-0724,0833,12147,028.5,045.5,0.481,735.0,01.18,0.508
2014-07-15 00:18:00,1910E-3,5C000000,-0724,0833,12142,028.5,045.5,0.482,735.0,01.18,0.508
2014-07-15 00:19:00,1808E-3,5C000000,-0724,0835,12294,028.5,045.5,0.481,735.0,01.18,0.508
2014-07-15 00:20:00,1807E-3,5C000000,-0724,0834,12279,028.5,045.5,0.482,735.0,01.18,0.508
2014-07-15 00:21:00,1823E-3,5C000000,-0724,0833,12209,028.5,045.5,0.481,735.0,01.18,0.508
2014-07-15 00:22:00,1889E-3,5C000000,-0724,0833,12185,028.5,045.5,0.481,734.9,01.18,0.508
2014-07-15 00:23:00,1887E-3,5C000000,-0724,0833,12163,028.5,045.5,0.481,735.0,01.18,0.508
2014-07-15 00:24:00,1875E-3,5C000000,-0724,0834,12323,028.5,045.5,0.481,734.9,01.18,0.508
2014-07-15 00:25:00,1742E-3,5C000000,-0724,0833,12140,028.5,045.5,0.481,734.9,01.18,0.508
2014-07-15 00:26:00,1862E-3,5C000000,-0724,0833,12142,028.5,045.5,0.481,734.9,01.18,0.508
2014-07-15 00:27:00,1827E-3,5C000000,-0724,0831,11945,028.5,045.5,0.481,734.9,01.18,0.508
2014-07-15 00:28:00,1750E-3,5C000000,-0724,0834,12321,028.5,045.5,0.481,734.9,01.18,0.508
2014-07-15 00:29:00,1960E-3,5C000000,-0724,0832,12032,028.5,045.5,0.482,734.9,01.18,0.508
2014-07-15 00:30:00,1763E-3,5C000000,-0724,0833,12273,028.5,045.5,0.481,734.9,01.18,0.508
2014-07-15 00:31:00,1874E-3,5C000000,-0724,0834,12238,028.5,045.5,0.482,734.9,01.18,0.508
2014-07-15 00:32:00,1673E-3,5C000000,-0724,0833,12219,028.5,045.5,0.481,734.9,01.18,0.508
2014-07-15 00:33:00,1929E-3,5C000000,-0724,0832,12264,028.5,045.5,0.482,734.9,01.18,0.508
2014-07-15 00:34:00,1916E-3,5C000000,-0724,0833,12148,028.5,045.5,0.481,734.9,01.18,0.508
2014-07-15 00:35:00,1762E-3,5C000000,-0724,0834,12265,028.5,045.5,0.482,734.9,01.18,0.508
2014-07-15 00:36:00,1834E-3,5C000000,-0724,0833,12172,028.5,045.5,0.481,735.0,01.18,0.508
2014-07-15 00:37:00,1745E-3,5C000000,-0724,0833,12192,028.5,045.5,0.482,735.0,01.18,0.508
2014-07-15 00:38:00,1863E-3,5C000000,-0724,0833,12370,028.5,045.5,0.481,735.0,01.18,0.508
2014-07-15 00:39:00,1743E-3,5C000000,-0724,0833,12231,028.5,045.5,0.482,735.0,01.18,0.508
2014-07-15 00:40:00,1771E-3,5C000000,-0724,0833,12273,028.5,045.5,0.481,735.0,01.18,0.508
2014-07-15 00:41:00,1804E-3,5C000000,-0724,0833,12091,028.5,045.5,0.482,735.1,01.18,0.508
2014-07-15 00:42:00,1672E-3,5C000000,-0724,0832,12260,028.5,045.5,0.481,735.1,01.18,0.508
2014-07-15 00:43:00,1871E-3,5C000000,-0724,0833,12082,028.5,045.5,0.482,735.1,01.18,0.508
2014-07-15 00:44:00,1814E-3,5C000000,-0724,0833,12053,028.5,045.5,0.481,735.1,01.18,0.508
2014-07-15 00:45:00,1869E-3,5C000000,-0724,0833,12174,028.5,045.5,0.482,735.1,01.18,0.508
2014-07-15 00:46:00,1926E-3,5C000000,-0724,0833,12180,028.5,045.5,0.481,735.1,01.18,0.508
2014-07-15 00:47:00,1835E-3,5C000000,-0724,0833,12151,028.5,045.5,0.482,735.1,01.18,0.508
2014-07-15 00:48:00,1877E-3,5C000000,-0724,0833,11925,028.5,045.5,0.482,735.1,01.18,0.508
2014-07-15 00:49:00,1882E-3,5C000000,-0724,0832,12009,028.5,045.5,0.482,735.0,01.18,0.508
2014-07-15 00:50:00,1818E-3,5C000000,-0724,0833,12144,028.5,045.5,0.482,735.1,01.18,0.508
2014-07-15 00:51:00,1750E-3,5C000000,-0724,0835,12182,028.4,045.5,0.481,735.1,01.18,0.508
2014-07-15 00:52:00,1735E-3,5C000000,-0724,0833,12158,028.5,045.5,0.482,735.1,01.18,0.508
2014-07-15 00:53:00,1843E-3,5C000000,-0724,0833,11928,028.4,045.5,0.481,735.0,01.18,0.508
2014-07-15 00:54:00,1861E-3,5C000000,-0724,0833,12070,028.4,045.5,0.482,735.1,01.18,0.508
2014-07-15 00:55:00,1762E-3,5C000000,-0724,0833,12219,028.5,045.5,0.481,735.1,01.18,0.508
2014-07-15 00:56:00,1730E-3,5C000000,-0724,0833,12300,028.4,045.5,0.482,735.1,01.18,0.508
2014-07-15 00:57:00,1954E-3,5C000000,-0724,0833,12032,028.5,045.5,0.481,735.1,01.18,0.508
2014-07-15 00:58:00,1780E-3,5C000000,-0724,0833,12139,028.4,045.5,0.482,735.1,01.18,0.508
2014-07-15 00:59:00,1753E-3,5C000000,-0724,0832,11992,028.4,045.5,0.481,735.0,01.18,0.508
2014-07-15 01:00:00,1831E-3,5C000000,-0724,0833,12314,028.4,045.5,0.482,735.1,01.18,0.508
2014-07-15 01:01:00,1898E-3,5C000000,-0724,0834,12239,028.4,045.5,0.481,735.0,01.18,0.508
2014-07-15 01:02:00,1978E-3,5C000000,-0724,0835,12400,028.4,045.5,0.482,735.0,01.18,0.508
2014-07-15 01:03:00,1863E-3,5C000000,-0724,0834,12104,028.4,045.5,0.481,735.0,01.18,0.508
2014-07-15 01:04:00,1777E-3,5C000000,-0724,0833,12063,028.4,045.5,0.482,735.0,01.18,0.508
2014-07-15 01:05:00,1703E-3,5C000000,-0724,0833,11947,028.4,045.5,0.481,735.0,01.18,0.508
2014-07-15 01:06:00,1876E-3,5C000000,-0724,0833,12138,028.4,045.5,0.482,734.9,01.18,0.508
2014-07-15 01:07:00,1861E-3,5C000000,-0724,0833,12212,028.4,045.5,0.481,734.9,01.18,0.508
2014-07-15 01:08:00,1793E-3,5C000000,-0724,0834,12127,028.4,045.5,0.482,734.9,01.18,0.508
2014-07-15 01:09:00,1837E-3,5C000000,-0724,0833,12111,028.4,045.5,0.481,735.0,01.18,0.508
2014-07-15 01:10:00,1805E-3,5C000000,-0724,0833,12112,028.4,045.5,0.481,735.0,01.18,0.508
2014-07-15 01:11:00,1955E-3,5C000000,-0724,0833,11979,028.4,045.5,0.482,735.0,01.18,0.508
2014-07-15 01:12:00,1738E-3,5C000000,-0724,0833,12064,028.4,045.5,0.481,734.9,01.18,0.508
2014-07-15 01:13:00,1897E-3,5C000000,-0724,0833,12054,028.4,045.5,0.482,735.0,01.18,0.508
2014-07-15 01:14:00,1777E-3,5C000000,-0724,0834,12174,028.4,045.5,0.482,735.0,01.18,0.508
2014-07-15 01:15:00,1787E-3,5C000000,-0724,0833,12212,028.4,045.5,0.482,735.0,01.18,0.508
2014-07-15 01:16:00,1895E-3,5C000000,-0724,0833,11927,028.4,045.5,0.481,735.0,01.18,0.508
2014-07-15 01:17:00,1774E-3,5C000000,-0724,0833,12105,028.4,045.5,0.482,735.0,01.18,0.508
2014-07-15 01:18:00,1924E-3,5C000000,-0724,0833,12205,028.4,045.5,0.481,735.1,01.18,0.508
2014-07-15 01:19:00,1909E-3,5C000000,-0724,0834,12252,028.4,045.5,0.482,735.1,01.18,0.508
2014-07-15 01:20:00,1754E-3,5C000000,-0724,0833,12264,028.4,045.5,0.481,735.1,01.18,0.508
2014-07-15 01:21:00,1802E-3,5C000000,-0724,0832,12110,028.4,045.5,0.482,735.1,01.18,0.508
2014-07-15 01:22:00,1916E-3,5C000000,-0724,0833,11964,028.4,045.5,0.481,735.0,01.18,0.508
2014-07-15 01:23:00,1705E-3,5C000000,-0724,0833,12159,028.5,045.5,0.482,735.0,01.18,0.508
2014-07-15 01:24:00,1909E-3,5C000000,-0724,0833,12263,028.4,045.5,0.481,735.0,01.18,0.508
2014-07-15 01:25:00,1886E-3,5C000000,-0724,0833,12282,028.5,045.5,0.482,735.0,01.18,0.508
2014-07-15 01:26:00,1910E-3,5C000000,-0724,0833,12187,028.4,045.5,0.481,735.0,01.18,0.508
2014-07-15 01:27:00,1744E-3,5C000000,-0724,0834,12247,028.4,045.5,0.482,735.1,01.18,0.508
2014-07-15 01:28:00,1869E-3,5C000000,-0724,0831,12214,028.5,045.5,0.481,735.1,01.18,0.508
2014-07-15 01:29:00,1743E-3,5C000000,-0724,0833,12272,028.4,045.5,0.482,735.1,01.18,0.508
2014-07-15 01:30:00,1804E-3,5C000000,-0724,0833,12277,028.4,045.5,0.481,735.1,01.18,0.508
2014-07-15 01:31:00,1754E-3,5C000000,-0724,0833,12185,028.5,045.5,0.482,735.1,01.18,0.508
2014-07-15 01:32:00,2077E-3,5C000000,-0724,0833,12133,028.4,045.5,0.481,735.1,01.18,0.508
2014-07-15 01:33:00,1861E-3,5C000000,-0724,0833,12114,028.4,045.5,0.482,735.0,01.18,0.508
2014-07-15 01:34:00,1788E-3,5C000000,-0724,0833,12100,028.4,045.5,0.481,735.1,01.18,0.508
2014-07-15 01:35:00,1831E-3,5C000000,-0724,0833,12272,028.4,045.5,0.482,735.1,01.18,0.508
2014-07-15 01:36:00,1790E-3,5C000000,-0724,0833,12250,028.4,045.5,0.481,735.1,01.18,0.508
2014-07-15 01:37:00,1828E-3,5C000000,-0724,0834,12202,028.4,045.5,0.482,735.1,01.18,0.508
2014-07-15 01:38:00,1774E-3,5C000000,-0724,0832,12017,028.4,045.5,0.481,735.1,01.18,0.508
2014-07-15 01:39:00,1794E-3,5C000000,-0724,0833,12278,028.4,045.5,0.482,735.1,01.18,0.508
2014-07-15 01:40:00,1860E-3,5C000000,-0724,0833,12022,028.4,045.5,0.482,735.1,01.18,0.508
2014-07-15 01:41:00,1823E-3,5C000000,-0724,0833,12186,028.4,045.5,0.482,735.2,01.18,0.508
2014-07-15 01:42:00,1906E-3,5C000000,-0724,0832,12122,028.4,045.5,0.482,735.1,01.18,0.508
2014-07-15 01:43:00,1856E-3,5C000000,-0724,0833,12163,028.4,045.5,0.481,735.2,01.18,0.508
2014-07-15 01:44:00,1841E-3,5C000000,-0724,0832,12432,028.4,045.5,0.482,735.1,01.18,0.508
2014-07-15 01:45:00,1795E-3,5C000000,-0724,0832,12135,028.4,045.5,0.481,735.2,01.18,0.508
2014-07-15 01:46:00,1758E-3,5C000000,-0724,0833,12056,028.4,045.5,0.482,735.1,01.18,0.508
2014-07-15 01:47:00,1781E-3,5C000000,-0724,0834,12062,028.4,045.5,0.481,735.1,01.18,0.508
2014-07-15 01:48:00,1833E-3,5C000000,-0724,0832,12092,028.4,045.5,0.482,735.2,01.18,0.508
2014-07-15 01:49:00,1856E-3,5C000000,-0724,0833,12153,028.4,045.5,0.482,735.1,01.18,0.508
2014-07-15 01:50:00,1897E-3,5C000000,-0724,0833,12101,028.4,045.5,0.482,735.2,01.18,0.508
2014-07-15 01:51:00,1651E-3,5C000000,-0724,0833,12155,028.4,045.5,0.482,735.2,01.18,0.508
2014-07-15 01:52:00,1857E-3,5C000000,-0724,0833,12186,028.4,045.5,0.482,735.2,01.18,0.508
2014-07-15 01:53:00,1775E-3,5C000000,-0724,0833,12122,028.4,045.5,0.482,735.2,01.18,0.508
2014-07-15 01:54:00,1917E-3,5C000000,-0724,0833,12160,028.4,045.5,0.482,735.3,01.18,0.508
2014-07-15 01:55:00,1758E-3,5C000000,-0724,0832,12072,028.4,045.5,0.482,735.2,01.18,0.508
2014-07-15 01:56:00,1908E-3,5C000000,-0724,0833,12169,028.4,045.5,0.482,735.3,01.18,0.508
2014-07-15 01:57:00,1897E-3,5C000000,-0724,0833,12296,028.4,045.5,0.482,735.3,01.18,0.508
2014-07-15 01:58:00,1850E-3,5C000000,-0724,0832,12270,028.4,045.5,0.481,735.4,01.18,0.508
2014-07-15 01:59:00,1857E-3,5C000000,-0724,0833,12239,028.4,045.5,0.482,735.4,01.18,0.508
2014-07-15 02:00:00,1837E-3,5C000000,-0724,0833,12212,028.4,045.5,0.481,735.4,01.18,0.508
2014-07-15 02:01:00,1950E-3,5C000000,-0724,0832,12000,028.4,045.5,0.482,735.4,01.18,0.508
2014-07-15 02:02:00,1790E-3,5C000000,-0724,0833,12107,028.4,045.5,0.481,735.4,01.18,0.508
2014-07-15 02:03:00,1884E-3,5C000000,-0724,0833,12248,028.4,045.5,0.482,735.4,01.18,0.508
2014-07-15 02:04:00,1795E-3,5C000000,-0724,0832,12084,028.4,045.5,0.481,735.4,01.18,0.508
2014-07-15 02:05:00,1767E-3,5C000000,-0724,0833,12058,028.4,045.5,0.482,735.3,01.18,0.508
2014-07-15 02:06:00,1792E-3,5C000000,-0724,0832,12269,028.4,045.5,0.482,735.3,01.18,0.508
2014-07-15 02:07:00,1835E-3,5C000000,-0724,0833,12116,028.4,045.5,0.482,735.3,01.18,0.508
2014-07-15 02:08:00,1737E-3,5C000000,-0724,0833,12291,028.4,045.5,0.482,735.3,01.18,0.508
2014-07-15 02:09:00,1768E-3,5C000000,-0724,0833,12242,028.4,045.5,0.482,735.3,01.18,0.508
2014-07-15 02:10:00,1769E-3,5C000000,-0724,0832,12011,028.4,045.5,0.482,735.3,01.18,0.508
2014-07-15 02:11:00,1810E-3,5C000000,-0724,0833,11957,028.4,045.5,0.481,735.3,01.18,0.508
2014-07-15 02:12:00,1878E-3,5C000000,-0724,0833,12290,028.4,045.5,0.482,735.3,01.18,0.508
2014-07-15 02:13:00,1794E-3,5C000000,-0724,0834,12014,028.4,045.5,0.481,735.3,01.18,0.508
2014-07-15 02:14:00,1922E-3,5C000000,-0724,0832,12083,028.4,045.5,0.482,735.3,01.18,0.508
2014-07-15 02:15:00,1858E-3,5C000000,-0724,0833,12147,028.5,045.5,0.481,735.3,01.18,0.508
2014-07-15 02:16:00,1783E-3,5C000000,-0724,0834,12093,028.5,045.5,0.482,735.3,01.18,0.508
2014-07-15 02:17:00,1739E-3,5C000000,-0724,0833,12053,028.5,045.5,0.481,735.2,01.18,0.508
2014-07-15 02:18:00,1875E-3,5C000000,-0724,0833,12081,028.4,045.5,0.482,735.3,01.18,0.508
2014-07-15 02:19:00,1844E-3,5C000000,-0724,0833,12159,028.5,045.5,0.481,735.3,01.18,0.508
2014-07-15 02:20:00,1817E-3,5C000000,-0724,0834,12217,028.5,045.5,0.482,735.3,01.18,0.508
2014-07-15 02:21:00,1843E-3,5C000000,-0724,0833,12113,028.5,045.5,0.482,735.2,01.18,0.508
2014-07-15 02:22:00,1948E-3,5C000000,-0724,0833,12093,028.5,045.5,0.482,735.2,01.18,0.508
2014-07-15 02:23:00,1770E-3,5C000000,-0724,0833,12239,028.5,045.5,0.482,735.2,01.18,0.508
2014-07-15 02:24:00,1895E-3,5C000000,-0724,0833,12270,028.5,045.5,0.482,735.2,01.18,0.508
2014-07-15 02:25:00,1841E-3,5C000000,-0724,0832,12175,028.5,045.5,0.482,735.3,01.18,0.508
2014-07-15 02:26:00,1950E-3,5C000000,-0724,0833,12231,028.5,045.5,0.481,735.2,01.18,0.508
2014-07-15 02:27:00,1718E-3,5C000000,-0724,0833,12157,028.5,045.5,0.482,735.3,01.18,0.508
2014-07-15 02:28:00,1787E-3,5C000000,-0724,0833,12177,028.5,045.5,0.481,735.3,01.18,0.508
2014-07-15 02:29:00,1812E-3,5C000000,-0724,0834,12191,028.5,045.5,0.482,735.3,01.18,0.508
2014-07-15 02:30:00,1779E-3,5C000000,-0724,0833,12046,028.5,045.5,0.481,735.3,01.18,0.508
2014-07-15 02:31:00,1838E-3,5C000000,-0724,0833,12069,028.5,045.5,0.482,735.4,01.18,0.508
2014-07-15 02:32:00,1780E-3,5C000000,-0724,0833,12106,028.5,045.5,0.481,735.4,01.18,0.508
2014-07-15 02:33:00,1811E-3,5C000000,-0724,0832,12087,028.5,045.5,0.482,735.4,01.18,0.508
2014-07-15 02:34:00,1935E-3,5C000000,-0724,0834,12199,028.5,045.5,0.482,735.4,01.18,0.508
2014-07-15 02:35:00,1740E-3,5C000000,-0724,0834,12250,028.5,045.5,0.481,735.4,01.18,0.508
2014-07-15 02:36:00,1778E-3,5C000000,-0724,0834,12182,028.5,045.5,0.482,735.4,01.18,0.508
2014-07-15 02:37:00,1910E-3,5C000000,-0724,0832,12012,028.5,045.5,0.481,735.3,01.18,0.508
2014-07-15 02:38:00,1920E-3,5C000000,-0724,0833,12133,028.6,045.5,0.482,735.3,01.18,0.508
2014-07-15 02:39:00,1758E-3,5C000000,-0724,0833,12148,028.6,045.5,0.481,735.3,01.18,0.508
2014-07-15 02:40:00,1834E-3,5C000000,-0724,0833,12269,028.6,045.5,0.482,735.3,01.18,0.508
2014-07-15 02:41:00,1875E-3,5C000000,-0724,0833,12216,028.6,045.5,0.482,735.3,01.18,0.508
2014-07-15 02:42:00,1786E-3,5C000000,-0724,0833,12221,028.6,045.5,0.481,735.3,01.18,0.508
2014-07-15 02:43:00,1977E-3,5C000000,-0724,0832,12082,028.6,045.5,0.482,735.3,01.18,0.508
2014-07-15 02:44:00,1906E-3,5C000000,-0724,0833,12111,028.6,045.5,0.481,735.3,01.18,0.508
2014-07-15 02:45:00,1864E-3,5C000000,-0724,0833,12181,028.6,045.5,0.482,735.3,01.18,0.508
2014-07-15 02:46:00,1832E-3,5C000000,-0724,0833,12309,028.6,045.5,0.481,735.3,01.18,0.508
2014-07-15 02:47:00,1775E-3,5C000000,-0724,0833,12314,028.6,045.5,0.482,735.3,01.18,0.508
2014-07-15 02:48:00,1860E-3,5C000000,-0724,0833,12142,028.6,045.5,0.481,735.3,01.18,0.508
2014-07-15 02:49:00,1830E-3,5C000000,-0724,0833,12144,028.6,045.5,0.481,735.3,01.18,0.508
2014-07-15 02:50:00,1767E-3,5C000000,-0724,0833,12305,028.6,045.5,0.482,735.3,01.18,0.508
2014-07-15 02:51:00,1788E-3,5C000000,-0724,0833,12053,028.6,045.5,0.481,735.3,01.18,0.508
2014-07-15 02:52:00,1859E-3,5C000000,-0724,0833,12076,028.6,045.5,0.482,735.3,01.18,0.508
2014-07-15 02:53:00,1760E-3,5C000000,-0724,0834,12228,028.6,045.5,0.481,735.3,01.18,0.508
2014-07-15 02:54:00,1771E-3,5C000000,-0724,0833,12225,028.6,045.5,0.482,735.3,01.18,0.508
2014-07-15 02:55:00,1857E-3,5C000000,-0724,0832,12019,028.6,045.5,0.481,735.3,01.18,0.508
2014-07-15 02:56:00,1695E-3,5C000000,-0724,0834,12056,028.6,045.5,0.482,735.3,01.18,0.508
2014-07-15 02:57:00,1915E-3,5C000000,-0724,0833,12331,028.6,045.5,0.481,735.2,01.18,0.508
2014-07-15 02:58:00,1808E-3,5C000000,-0724,0832,12200,028.6,045.5,0.481,735.3,01.18,0.508
2014-07-15 02:59:00,1865E-3,5C000000,-0724,0832,12033,028.6,045.5,0.482,735.3,01.18,0.508
2014-07-15 03:00:00,1825E-3,5C000000,-0724,0833,12238,028.6,045.5,0.481,735.3,01.18,0.508
2014-07-15 03:01:00,1830E-3,5C000000,-0724,0833,12269,028.6,045.5,0.482,735.3,01.18,0.508
2014-07-15 03:02:00,1773E-3,5C000000,-0724,0832,12022,028.6,045.5,0.481,735.3,01.18,0.508
2014-07-15 03:03:00,1846E-3,5C000000,-0724,0834,12180,028.6,045.5,0.482,735.3,01.18,0.508
2014-07-15 03:04:00,1791E-3,5C000000,-0724,0834,12005,028.6,045.5,0.481,735.3,01.18,0.508
2014-07-15 03:05:00,1927E-3,5C000000,-0724,0833,12070,028.6,045.5,0.482,735.3,01.18,0.508
2014-07-15 03:06:00,1866E-3,5C000000,-0724,0832,12178,028.6,045.5,0.481,735.3,01.18,0.508
2014-07-15 03:07:00,1838E-3,5C000000,-0724,0833,12215,028.6,045.5,0.481,735.3,01.18,0.508
2014-07-15 03:08:00,1913E-3,5C000000,-0724,0832,12129,028.7,045.5,0.482,735.3,01.18,0.508
2014-07-15 03:09:00,1813E-3,5C000000,-0724,0832,12198,028.7,045.5,0.481,735.4,01.18,0.508
2014-07-15 03:10:00,1824E-3,5C000000,-0724,0833,12254,028.6,045.5,0.482,735.4,01.18,0.508
2014-07-15 03:11:00,1945E-3,5C000000,-0724,0832,12011,028.6,045.5,0.481,735.4,01.18,0.508
2014-07-15 03:12:00,1787E-3,5C000000,-0724,0833,12209,028.6,045.5,0.481,735.4,01.18,0.508
2014-07-15 03:13:00,1924E-3,5C000000,-0724,0834,12239,028.6,045.5,0.481,735.4,01.18,0.508
2014-07-15 03:14:00,1916E-3,5C000000,-0724,0833,12298,028.7,045.5,0.481,735.4,01.18,0.508
2014-07-15 03:15:00,1772E-3,5C000000,-0724,0833,12248,028.7,045.5,0.482,735.4,01.18,0.508
2014-07-15 03:16:00,1855E-3,5C000000,-0724,0833,12260,028.7,045.5,0.481,735.4,01.18,0.508
2014-07-15 03:17:00,1963E-3,5C000000,-0724,0833,12192,028.7,045.5,0.482,735.5,01.18,0.508
2014-07-15 03:18:00,1655E-3,5C000000,-0724,0833,12186,028.7,045.5,0.481,735.5,01.18,0.508
2014-07-15 03:19:00,2030E-3,5C000000,-0724,0833,12196,028.7,045.5,0.481,735.5,01.18,0.508
2014-07-15 03:20:00,1959E-3,5C000000,-0724,0833,12192,028.7,045.5,0.482,735.5,01.18,0.508
2014-07-15 03:21:00,1869E-3,5C000000,-0724,0833,12151,028.7,045.5,0.481,735.4,01.18,0.508
2014-07-15 03:22:00,2004E-3,5C000000,-0724,0833,12261,028.7,045.5,0.482,735.4,01.18,0.508
2014-07-15 03:23:00,1697E-3,5C000000,-0724,0834,12219,028.7,045.5,0.481,735.4,01.18,0.508
2014-07-15 03:24:00,1850E-3,5C000000,-0724,0833,12044,028.7,045.5,0.482,735.4,01.18,0.508
2014-07-15 03:25:00,1714E-3,5C000000,-0724,0833,12372,028.7,045.5,0.481,735.4,01.18,0.508
2014-07-15 03:26:00,1963E-3,5C000000,-0724,0832,12109,028.7,045.5,0.481,735.4,01.18,0.508
2014-07-15 03:27:00,1794E-3,5C000000,-0724,0832,12166,028.7,045.5,0.482,735.4,01.18,0.508
2014-07-15 03:28:00,1724E-3,5C000000,-0724,0833,12128,028.7,045.5,0.481,735.4,01.18,0.508
2014-07-15 03:29:00,1885E-3,5C000000,-0724,0833,12167,028.7,045.5,0.482,735.4,01.18,0.508
2014-07-15 03:30:00,1833E-3,5C000000,-0724,0833,12052,028.7,045.5,0.481,735.4,01.18,0.508
2014-07-15 03:31:00,1862E-3,5C000000,-0724,0833,12151,028.7,045.5,0.481,735.4,01.18,0.508
2014-07-15 03:32:00,1797E-3,5C000000,-0724,0833,12240,028.7,045.5,0.482,735.4,01.18,0.508
2014-07-15 03:33:00,1885E-3,5C000000,-0724,0834,12181,028.7,045.5,0.481,735.4,01.18,0.508
2014-07-15 03:34:00,1912E-3,5C000000,-0724,0833,12216,028.7,045.5,0.482,735.4,01.18,0.508
2014-07-15 03:35:00,1845E-3,5C000000,-0724,0834,12229,028.7,045.5,0.481,735.4,01.18,0.508
2014-07-15 03:36:00,1736E-3,5C000000,-0724,0832,12322,028.7,045.5,0.481,735.3,01.18,0.508
2014-07-15 03:37:00,1807E-3,5C000000,-0724,0833,12287,028.7,045.5,0.482,735.3,01.18,0.508
2014-07-15 03:38:00,1762E-3,5C000000,-0724,0832,12165,028.7,045.5,0.481,735.3,01.18,0.508
2014-07-15 03:39:00,1791E-3,5C000000,-0724,0832,12005,028.7,045.5,0.482,735.3,01.18,0.508
2014-07-15 03:40:00,1769E-3,5C000000,-0724,0833,11985,028.7,045.5,0.481,735.3,01.18,0.508
2014-07-15 03:41:00,1812E-3,5C000000,-0724,0833,12145,028.7,045.5,0.481,735.3,01.18,0.508
2014-07-15 03:42:00,1874E-3,5C000000,-0724,0834,11995,028.7,045.5,0.482,735.3,01.18,0.508
2014-07-15 03:43:00,1827E-3,5C000000,-0724,0834,12307,028.7,045.5,0.481,735.4,01.18,0.508
2014-07-15 03:44:00,1898E-3,5C000000,-0724,0833,12310,028.7,045.5,0.482,735.3,01.18,0.508
2014-07-15 03:45:00,1834E-3,5C000000,-0724,0834,12076,028.7,045.5,0.481,735.4,01.18,0.508
2014-07-15 03:46:00,1843E-3,5C000000,-0724,0833,11994,028.7,045.5,0.481,735.4,01.18,0.508
2014-07-15 03:47:00,1880E-3,5C000000,-0724,0834,12086,028.8,045.5,0.481,735.4,01.18,0.508
2014-07-15 03:48:00,1881E-3,5C000000,-0724,0834,12161,028.7,045.5,0.481,735.4,01.18,0.508
2014-07-15 03:49:00,1811E-3,5C000000,-0724,0834,12124,028.7,045.5,0.482,735.5,01.18,0.508
2014-07-15 03:50:00,1961E-3,5C000000,-0724,0833,12038,028.8,045.5,0.481,735.4,01.18,0.508
2014-07-15 03:51:00,1846E-3,5C000000,-0724,0832,12293,028.7,045.5,0.481,735.4,01.18,0.508
2014-07-15 03:52:00,1811E-3,5C000000,-0724,0833,11995,028.8,045.5,0.481,735.4,01.18,0.508
2014-07-15 03:53:00,1804E-3,5C000000,-0724,0833,12146,028.8,045.5,0.481,735.4,01.18,0.508
2014-07-15 03:54:00,1837E-3,5C000000,-0724,0833,12145,028.7,045.5,0.482,735.4,01.18,0.508
2014-07-15 03:55:00,1887E-3,5C000000,-0724,0833,12206,028.8,045.5,0.481,735.5,01.18,0.508
2014-07-15 03:56:00,1854E-3,5C000000,-0724,0833,12000,028.8,045.5,0.481,735.4,01.18,0.508
2014-07-15 03:57:00,1727E-3,5C000000,-0724,0833,12303,028.8,045.5,0.481,735.4,01.18,0.508
2014-07-15 03:58:00,1779E-3,5C000000,-0724,0833,12177,028.8,045.5,0.481,735.4,01.18,0.508
2014-07-15 03:59:00,1775E-3,5C000000,-0724,0832,12270,028.8,045.5,0.481,735.4,01.18,0.508
2014-07-15 04:00:00,1887E-3,5C000000,-0724,0833,12092,028.8,045.5,0.481,735.4,01.18,0.508
2014-07-15 04:01:00,1803E-3,5C000000,-0724,0833,12322,028.8,045.5,0.481,735.4,01.18,0.508
2014-07-15 04:02:00,1961E-3,5C000000,-0724,0832,12234,028.8,045.5,0.481,735.4,01.18,0.508
2014-07-15 04:03:00,1720E-3,5C000000,-0724,0832,12186,028.8,045.5,0.481,735.5,01.18,0.508
2014-07-15 04:04:00,1941E-3,5C000000,-0724,0833,12120,028.8,045.5,0.482,735.5,01.18,0.508
2014-07-15 04:05:00,1781E-3,5C000000,-0724,0832,12201,028.8,045.5,0.481,735.4,01.18,0.508
2014-07-15 04:06:00,1794E-3,5C000000,-0724,0832,12123,028.8,045.5,0.482,735.5,01.18,0.508
2014-07-15 04:07:00,1781E-3,5C000000,-0724,0832,12150,028.8,045.5,0.481,735.5,01.18,0.508
2014-07-15 04:08:00,1808E-3,5C000000,-0724,0833,12142,028.8,045.5,0.481,735.5,01.18,0.508
2014-07-15 04:09:00,1698E-3,5C000000,-0724,0833,12013,028.8,045.5,0.481,735.4,01.18,0.508
2014-07-15 04:10:00,1855E-3,5C000000,-0724,0833,12104,028.8,045.5,0.481,735.5,01.18,0.508
2014-07-15 04:11:00,1900E-3,5C000000,-0724,0834,12082,028.8,045.5,0.481,735.5,01.18,0.508
2014-07-15 04:12:00,1764E-3,5C000000,-0724,0833,12151,028.8,045.5,0.481,735.5,01.18,0.508
2014-07-15 04:13:00,1900E-3,5C000000,-0724,0833,12228,028.8,045.5,0.481,735.5,01.18,0.508
2014-07-15 04:14:00,1875E-3,5C000000,-0724,0833,12281,028.8,045.5,0.482,735.5,01.18,0.508
2014-07-15 04:15:00,1926E-3,5C000000,-0724,0833,12011,028.8,045.5,0.481,735.5,01.18,0.508
2014-07-15 04:16:00,1842E-3,5C000000,-0724,0833,12242,028.8,045.5,0.481,735.5,01.18,0.508
2014-07-15 04:17:00,1856E-3,5C000000,-0724,0833,12202,028.8,045.5,0.481,735.5,01.18,0.508
2014-07-15 04:18:00,1716E-3,5C000000,-0724,0833,12061,028.8,045.5,0.481,735.5,01.18,0.508
2014-07-15 04:19:00,1705E-3,5C000000,-0724,0833,12188,028.8,045.5,0.481,735.5,01.18,0.508
2014-07-15 04:20:00,1808E-3,5C000000,-0724,0833,12366,028.8,045.5,0.481,735.5,01.18,0.508